| time (UTC) | temp F | wind direction | speed MPH | gust MPH | rain 1hr in | rain 24hr in | rain mn in | humidity % | barometer mb |
| 20260503060203 | 57 | 140 | 7.0 | 0.0 | 0.00 | 0.00 | 0.00 | 50 | 1017.0 |
| 20260503053202 | 55 | 130 | 9.0 | 0.0 | 0.00 | 0.00 | 0.00 | 54 | 1017.0 |
| 20260503051801 | 52 | 110 | 7.0 | 0.0 | 0.00 | 0.00 | 0.00 | 62 | |
| 20260503050203 | 52 | 110 | 6.0 | 0.0 | 0.00 | 0.00 | 0.00 | 66 | 1017.0 |
| 20260503043202 | 50 | 0 | 2.0 | 0.0 | 0.00 | 0.00 | 0.00 | 61 | 1017.0 |
| 20260503041802 | 50 | 50 | 2.0 | 0.0 | 0.00 | 0.00 | 0.00 | 53 | |
| 20260503040203 | 50 | 0 | 1.0 | 0.0 | 0.00 | 0.00 | 0.00 | 53 | 1017.0 |
| 20260503033203 | 50 | 0 | 2.0 | 0.0 | 0.00 | 0.00 | 0.00 | 53 | 1017.0 |
| 20260503031800 | 48 | 340 | 5.0 | 0.0 | 0.00 | 0.00 | 0.00 | 57 | |
| 20260503030203 | 48 | 350 | 6.0 | 0.0 | 0.00 | 0.00 | 0.00 | 57 | 1017.0 |
| 20260503023203 | 54 | 170 | 5.0 | 0.0 | 0.00 | 0.00 | 0.00 | 46 | 1017.0 |
| 20260503021800 | 54 | 170 | 7.0 | 0.0 | 0.00 | 0.00 | 0.00 | 43 | |
| 20260503020202 | 54 | 180 | 6.0 | 0.0 | 0.00 | 0.00 | 0.00 | 46 | 1017.0 |
| 20260503013202 | 54 | 180 | 7.0 | 0.0 | 0.00 | 0.00 | 0.00 | 46 | 1017.0 |
| 20260503011801 | 54 | 180 | 7.0 | 0.0 | 0.00 | 0.00 | 0.00 | 46 | |
| 20260503010201 | 54 | 190 | 9.0 | 0.0 | 0.00 | 0.00 | 0.00 | 46 | 1017.0 |
| 20260503003203 | 54 | 180 | 9.0 | 0.0 | 0.00 | 0.00 | 0.00 | 46 | 1017.0 |
| 20260503001800 | 54 | 180 | 7.0 | 0.0 | 0.00 | 0.00 | 0.00 | 46 | |
| 20260503000204 | 55 | 170 | 8.0 | 0.0 | 0.00 | 0.00 | 0.00 | 43 | 1017.0 |
| 20260502233203 | 55 | 170 | 8.0 | 0.0 | 0.00 | 0.00 | 0.00 | 43 | 1018.0 |
| 20260502231801 | 57 | 180 | 7.0 | 0.0 | 0.00 | 0.00 | 0.00 | 41 | |
| 20260502230202 | 57 | 180 | 9.0 | 0.0 | 0.00 | 0.00 | 0.00 | 44 | 1018.0 |
| 20260502223202 | 55 | 170 | 8.0 | 0.0 | 0.00 | 0.00 | 0.00 | 47 | 1018.0 |
| 20260502221802 | 54 | 150 | 7.0 | 0.0 | 0.00 | 0.00 | 0.00 | 46 | |
| 20260502220202 | 57 | 150 | 9.0 | 0.0 | 0.00 | 0.00 | 0.00 | 41 | 1018.0 |
| 20260502213202 | 59 | 130 | 7.0 | 0.0 | 0.00 | 0.00 | 0.00 | 38 | 1018.0 |
| 20260502211800 | 61 | 120 | 9.0 | 0.0 | 0.00 | 0.00 | 0.00 | 36 | |
| 20260502210203 | 61 | 130 | 8.0 | 0.0 | 0.00 | 0.00 | 0.00 | 36 | 1018.0 |
| 20260502203203 | 61 | 120 | 8.0 | 0.0 | 0.00 | 0.00 | 0.00 | 38 | 1018.0 |
| 20260502201801 | 63 | 110 | 9.0 | 0.0 | 0.00 | 0.00 | 0.00 | 33 | |
| 20260502200202 | 61 | 110 | 8.0 | 0.0 | 0.00 | 0.00 | 0.00 | 38 | 1018.0 |
| 20260502193202 | 63 | 100 | 8.0 | 0.0 | 0.00 | 0.00 | 0.00 | 36 | 1018.0 |
| 20260502191801 | 64 | 100 | 7.0 | 0.0 | 0.00 | 0.00 | 0.00 | 34 | |
| 20260502190202 | 63 | 100 | 9.0 | 0.0 | 0.00 | 0.00 | 0.00 | 36 | 1018.0 |
| 20260502183202 | 64 | 100 | 9.0 | 0.0 | 0.00 | 0.00 | 0.00 | 34 | 1018.0 |
| 20260502181801 | 68 | 110 | 7.0 | 0.0 | 0.00 | 0.00 | 0.00 | 28 | |
| 20260502180203 | 68 | 110 | 8.0 | 0.0 | 0.00 | 0.00 | 0.00 | 28 | 1018.0 |
| 20260502170203 | 72 | 80 | 8.0 | 0.0 | 0.00 | 0.00 | 0.00 | 23 | 1019.0 |
| 20260502163202 | 73 | 150 | 6.0 | 0.0 | 0.00 | 0.00 | 0.00 | 25 | 1019.0 |
| 20260502161800 | 73 | 120 | 5.0 | 0.0 | 0.00 | 0.00 | 0.00 | 21 | |
| 20260502160203 | 75 | 100 | 6.0 | 0.0 | 0.00 | 0.00 | 0.00 | 22 | 1019.0 |
| 20260502151744 | 75 | 190 | 5.0 | 0.0 | 0.00 | 0.00 | 0.00 | 19 | |
| 20260502150203 | 75 | 0 | 3.0 | 0.0 | 0.00 | 0.00 | 0.00 | 20 | 1020.0 |
| 20260502130203 | 73 | 200 | 3.0 | 0.0 | 0.00 | 0.00 | 0.00 | 25 | 1021.0 |
| 20260502123203 | 72 | 70 | 7.0 | 0.0 | 0.00 | 0.00 | 0.00 | 26 | 1022.0 |
| 20260502121803 | 72 | 40 | 5.0 | 0.0 | 0.00 | 0.00 | 0.00 | 24 | |
| 20260502120203 | 72 | 70 | 3.0 | 0.0 | 0.00 | 0.00 | 0.00 | 24 | 1022.0 |
| 20260502113203 | 72 | 0 | 2.0 | 0.0 | 0.00 | 0.00 | 0.00 | 26 | 1023.0 |
| 20260502111803 | 70 | 100 | 5.0 | 0.0 | 0.00 | 0.00 | 0.00 | 26 | |
| 20260502110203 | 70 | 60 | 5.0 | 0.0 | 0.00 | 0.00 | 0.00 | 26 | 1023.0 |
| 20260502103203 | 70 | 140 | 6.0 | 0.0 | 0.00 | 0.00 | 0.00 | 24 | 1023.0 |
| 20260502101803 | 68 | 170 | 5.0 | 0.0 | 0.00 | 0.00 | 0.00 | 26 | |
| 20260502100204 | 68 | 190 | 5.0 | 0.0 | 0.00 | 0.00 | 0.00 | 22 | 1024.0 |
| 20260502090203 | 68 | 150 | 7.0 | 0.0 | 0.00 | 0.00 | 0.00 | 32 | 1024.0 |
| 20260502070203 | 59 | 0 | 2.0 | 0.0 | 0.00 | 0.00 | 0.00 | 47 | 1025.0 |